COSMOS 1275 DEB, 13074

Orbit data source: Space-Track

COSMOS 1275 DEB, 13074 is space debris in LEO originally from a launch on Thu, 04 Jun 1981 UTC launched from the Plesetsk Missile And Space Complex (PKMTR). Debris objects in space refer to the collection of defunct objects orbiting the Earth. Examples of debris include non-operational satellites, rocket bodies, and fragments generated from explosions, collisions, or faulty payload assembly.

Loading next visibility...
Identifier
13074, 1981-053FA
Orbit
LEO
Country
Flag of CISCIS
Related business
Manufacturer
Unknown
Mission
Spacecraft
Bus & Motor
Unknown
Mass
Unknown
Launch date (UTC)
1981-06-04 (45 years ago)
Launch vehicle
Unknown
Launch site
Plesetsk Missile And Space Complex (PKMTR)
Object type
Payload
Rocket body
Debris
Shape & HBR
Unknown shape, 0.1 m
Radar Cross Section
Small (<0.1 m²)

Expand to show TLE details & history
Last TLE update: 8 hours ago

TLE from 8 hours ago
0 COSMOS 1275 DEB
1 13074U 81053FA  26118.78213750  .00000486  00000-0  41984-3 0  9990
2 13074  82.9475 216.2334 0029895  29.6896  99.4504 13.84287671249672
Epoch: 2026-04-28T18:46Z
TLE epoch observation values (Epoch: 2026-04-28T18:46:16.679Z)
Latitude
50.09596°
Longitude
-110.55155°
Altitude
960.355 km
Speed
7.374 km/s
True Right ascension
01h 51m 04s
True Declination
49° 55' 53"
Sunlit
Object was in daylight at epoch
Visualization orbit readout
Latitude
Unknown
Longitude
Unknown
Altitude
Unknown
Speed
Unknown
Apparent Right ascension
Unknown
Apparent Declination
Unknown
Sunlit
N/A
Visualization observer readout
Local Sidereal Time
10:24:58
Azimuth
Unknown
Elevation
Unknown
Doppler factor
Unknown
Orbital elements
Apogee altitude
967.749 km
Perigee altitude
923.959 km
Semi-major axis
7,323.991 km
Eccentricity
0.00299
Inclination
82.9475°
RAAN
216.2334°
Arg. of periapsis
29.6896°
True anomaly
99.78811°
Mean anomaly
99.4504°
Eccentric anomaly
99.61928°
Mean motion
3.46275 °/min
Orbital period
103.96 mins
BSTAR
0.00041984
Loading maneuver chart data...
Computing Atmospheric mass density...
Loading historical data...
Loading historical data...
Loading historical data...
Loading historical data...
Loading historical data...
Loading historical data...
Loading historical data...

Documentation

Showing up to 5 results
|